RYR3D LEMI-EGSS

Flight info

Callsign RYR3D
Flight time N/A
Altitude 34000
Route ALT1L ALT N851 MITOS N608 COMPI Y90 USKAR N863 GIROM DCT AGN DCT SECHE DCT UVELI DCT CNA DCT TUPAR UN861 DIKRO UM185 ADLOG/N0435F240 M185 TELTU TELTU1L
Aircraft B738/M-SDE2E3FGHIRWXY/LB1

Departure

Time 2026-04-26 12:20
Airport Region of Murcia International Airport (LEMI)

Arrival

Time N/A
Airport London Stansted Airport (EGSS)
Time Latitude Longitude Altitude Speed Heading
2026-04-26 12:14 37.80367 -1.12963 647 ft 10 kts 227°
2026-04-26 12:15 37.80318 -1.13027 647 ft 9 kts 225°
2026-04-26 12:15 37.80280 -1.13075 648 ft 6 kts 225°
2026-04-26 12:15 37.80255 -1.13107 649 ft 3 kts 225°
2026-04-26 12:15 37.80224 -1.13147 650 ft 9 kts 224°
2026-04-26 12:16 37.80164 -1.13142 648 ft 10 kts 139°
2026-04-26 12:16 37.80099 -1.13079 643 ft 13 kts 178°
2026-04-26 12:16 37.80027 -1.13148 643 ft 14 kts 225°
2026-04-26 12:16 37.79955 -1.13241 644 ft 14 kts 226°
2026-04-26 12:17 37.79890 -1.13326 645 ft 13 kts 225°
2026-04-26 12:17 37.79819 -1.13418 644 ft 16 kts 227°
2026-04-26 12:17 37.79734 -1.13525 643 ft 17 kts 226°
2026-04-26 12:17 37.79650 -1.13634 642 ft 16 kts 225°
2026-04-26 12:18 37.79567 -1.13740 639 ft 15 kts 225°
2026-04-26 12:18 37.79491 -1.13772 637 ft 8 kts 141°
2026-04-26 12:18 37.79452 -1.13724 636 ft 9 kts 135°
2026-04-26 12:18 37.79417 -1.13641 635 ft 10 kts 78°
2026-04-26 12:19 37.79458 -1.13572 636 ft 8 kts 46°
2026-04-26 12:19 37.79505 -1.13512 637 ft 17 kts 45°
2026-04-26 12:19 37.79778 -1.13162 636 ft 92 kts 45°
2026-04-26 12:19 37.80395 -1.12370 632 ft 157 kts 46°
2026-04-26 12:20 37.81265 -1.11255 813 ft 194 kts 47°
2026-04-26 12:20 37.82261 -1.10006 1573 ft 206 kts 43°
2026-04-26 12:20 37.83311 -1.08875 2568 ft 203 kts 41°
2026-04-26 12:20 37.84434 -1.07687 3122 ft 215 kts 43°
2026-04-26 12:21 37.85567 -1.06379 3657 ft 228 kts 45°
2026-04-26 12:21 37.86729 -1.04984 4179 ft 241 kts 45°
2026-04-26 12:21 37.87975 -1.03480 4703 ft 255 kts 45°
2026-04-26 12:21 37.89280 -1.01910 5432 ft 261 kts 45°
2026-04-26 12:22 37.90599 -1.00330 6181 ft 265 kts 45°
2026-04-26 12:22 37.91943 -0.98723 6931 ft 268 kts 45°
2026-04-26 12:22 37.93296 -0.97100 7680 ft 272 kts 45°
2026-04-26 12:22 37.94676 -0.95443 8403 ft 275 kts 45°
2026-04-26 12:23 37.96072 -0.93766 9122 ft 279 kts 45°
2026-04-26 12:23 37.97474 -0.92082 9807 ft 283 kts 45°
2026-04-26 12:23 37.98912 -0.90355 10479 ft 287 kts 45°
2026-04-26 12:23 38.00388 -0.88582 10853 ft 302 kts 45°
2026-04-26 12:24 38.01946 -0.86713 11263 ft 316 kts 45°
2026-04-26 12:24 38.03563 -0.84774 11610 ft 330 kts 45°
2026-04-26 12:24 38.05239 -0.82767 11984 ft 344 kts 45°
2026-04-26 12:25 38.08832 -0.78459 12817 ft 368 kts 44°
2026-04-26 12:25 38.10710 -0.76210 13464 ft 373 kts 44°
2026-04-26 12:25 38.12582 -0.73970 14142 ft 375 kts 44°
2026-04-26 12:25 38.14432 -0.71769 14803 ft 378 kts 44°
2026-04-26 12:26 38.16349 -0.69494 15526 ft 379 kts 44°
2026-04-26 12:26 38.18275 -0.67210 16174 ft 382 kts 44°
2026-04-26 12:26 38.20217 -0.64905 16815 ft 384 kts 44°
2026-04-26 12:26 38.22187 -0.62564 17401 ft 387 kts 44°
2026-04-26 12:27 38.24107 -0.60218 17982 ft 390 kts 47°
2026-04-26 12:27 38.25907 -0.57612 18548 ft 392 kts 53°
2026-04-26 12:27 38.27419 -0.54695 19103 ft 395 kts 61°
2026-04-26 12:27 38.28670 -0.51560 19647 ft 398 kts 65°
2026-04-26 12:28 38.29772 -0.48344 20220 ft 399 kts 68°
2026-04-26 12:28 38.30820 -0.45050 20689 ft 402 kts 68°
2026-04-26 12:28 38.31847 -0.41736 21175 ft 404 kts 69°
2026-04-26 12:28 38.32886 -0.38377 21544 ft 409 kts 69°
2026-04-26 12:29 38.33942 -0.34979 22010 ft 412 kts 69°
2026-04-26 12:29 38.34998 -0.31603 22449 ft 414 kts 69°
2026-04-26 12:29 38.37160 -0.24799 23278 ft 420 kts 68°
2026-04-26 12:30 38.38296 -0.21348 23682 ft 423 kts 68°
2026-04-26 12:30 38.39456 -0.17907 24141 ft 424 kts 66°
2026-04-26 12:30 38.40817 -0.14519 24531 ft 428 kts 61°
2026-04-26 12:31 38.44609 -0.08654 25278 ft 436 kts 43°
2026-04-26 12:31 38.47015 -0.06235 25579 ft 442 kts 37°
2026-04-26 12:31 38.49617 -0.04180 26008 ft 444 kts 30°
2026-04-26 12:31 38.52514 -0.02576 26281 ft 451 kts 20°
2026-04-26 12:32 38.55532 -0.01618 26674 ft 454 kts 12°
2026-04-26 12:32 38.58719 -0.01180 26964 ft 459 kts
2026-04-26 12:32 38.65153 -0.00978 27671 ft 464 kts
2026-04-26 12:33 38.68356 -0.00996 27998 ft 466 kts
2026-04-26 12:33 38.71634 -0.01032 28287 ft 468 kts
2026-04-26 12:33 38.74886 -0.01066 28601 ft 470 kts
2026-04-26 12:33 38.78182 -0.01089 28897 ft 472 kts
2026-04-26 12:34 38.81463 -0.01099 29176 ft 474 kts
2026-04-26 12:34 38.84798 -0.01099 29459 ft 476 kts
2026-04-26 12:34 38.88094 -0.01092 29745 ft 477 kts
2026-04-26 12:34 38.91448 -0.01080 30170 ft 474 kts
2026-04-26 12:35 38.94708 -0.01066 30602 ft 472 kts
2026-04-26 12:35 38.97748 -0.01051 30952 ft 471 kts
2026-04-26 12:35 39.00769 -0.01034 31289 ft 470 kts
2026-04-26 12:35 39.04125 -0.01013 31621 ft 469 kts
2026-04-26 12:36 39.07409 -0.00992 31956 ft 468 kts
2026-04-26 12:36 39.10635 -0.00970 32286 ft 467 kts
2026-04-26 12:36 39.13927 -0.00948 32602 ft 466 kts
2026-04-26 12:36 39.17114 -0.00926 32897 ft 465 kts
2026-04-26 12:37 39.20384 -0.00904 33182 ft 464 kts
2026-04-26 12:37 39.23600 -0.00881 33405 ft 465 kts
2026-04-26 12:37 39.26836 -0.00856 33669 ft 463 kts
2026-04-26 12:37 39.30096 -0.00814 33945 ft 462 kts
2026-04-26 12:38 39.33290 -0.00607 34145 ft 461 kts
2026-04-26 12:38 39.39613 0.00740 34156 ft 458 kts 15°
2026-04-26 12:39 39.45750 0.02882 34152 ft 456 kts 18°
2026-04-26 12:39 39.51545 0.05099 34157 ft 457 kts 18°
2026-04-26 12:40 39.54831 0.06362 34156 ft 457 kts 18°
2026-04-26 12:40 39.60441 0.08502 34151 ft 457 kts 18°
2026-04-26 12:41 39.63376 0.09612 34156 ft 457 kts 18°
2026-04-26 12:41 39.69452 0.11895 34154 ft 457 kts 18°
2026-04-26 12:42 39.75545 0.14175 34153 ft 457 kts 18°
2026-04-26 12:42 39.81670 0.16463 34155 ft 456 kts 18°
2026-04-26 12:43 39.87774 0.18744 34154 ft 456 kts 18°
2026-04-26 12:43 39.93904 0.21039 34154 ft 457 kts 18°
2026-04-26 12:44 40.00034 0.23338 34152 ft 456 kts 18°
2026-04-26 12:44 40.06101 0.25618 34153 ft 457 kts 18°
2026-04-26 12:45 40.12175 0.27905 34154 ft 455 kts 18°
2026-04-26 12:45 40.18270 0.30204 34153 ft 455 kts 17°
2026-04-26 12:46 40.24369 0.32504 34150 ft 455 kts 17°
2026-04-26 12:46 40.30447 0.34800 34150 ft 454 kts 17°
2026-04-26 12:47 40.36494 0.37094 34148 ft 455 kts 17°
2026-04-26 12:47 40.42577 0.39409 34149 ft 454 kts 17°
2026-04-26 12:48 40.48657 0.41728 34148 ft 455 kts 16°
2026-04-26 12:48 40.54709 0.44040 34149 ft 455 kts 16°
2026-04-26 12:49 40.60813 0.46373 34145 ft 456 kts 15°
2026-04-26 12:49 40.66882 0.48696 34145 ft 456 kts 15°
2026-04-26 12:50 40.72979 0.51033 34141 ft 459 kts 15°
2026-04-26 12:50 40.79074 0.53374 34144 ft 459 kts 15°
2026-04-26 12:51 40.85207 0.55735 34146 ft 459 kts 15°
2026-04-26 12:51 40.91363 0.58110 34145 ft 461 kts 15°
2026-04-26 12:52 40.97560 0.60506 34154 ft 461 kts 15°
2026-04-26 12:52 41.03720 0.62892 34157 ft 462 kts 15°
2026-04-26 12:53 41.09839 0.65267 34159 ft 462 kts 16°
2026-04-26 12:53 41.15806 0.67587 34162 ft 461 kts 16°
2026-04-26 12:54 41.21872 0.69950 34165 ft 461 kts 16°
2026-04-26 12:54 41.27027 0.71962 34169 ft 461 kts 16°
2026-04-26 12:55 41.33137 0.74351 34170 ft 461 kts 16°
2026-04-26 12:55 41.39289 0.76761 34170 ft 461 kts 16°
2026-04-26 12:56 41.45464 0.79186 34166 ft 461 kts 16°
2026-04-26 12:56 41.51619 0.81608 34161 ft 462 kts 15°
2026-04-26 12:57 41.57776 0.84035 34158 ft 462 kts 15°
2026-04-26 12:57 41.63900 0.86455 34157 ft 463 kts 15°
2026-04-26 12:58 41.73180 0.90128 34152 ft 464 kts 15°
2026-04-26 12:58 41.79352 0.92575 34153 ft 464 kts 15°
2026-04-26 12:59 41.85547 0.95035 34164 ft 465 kts 15°
2026-04-26 12:59 41.91753 0.97509 34174 ft 465 kts 15°
2026-04-26 13:00 41.97944 0.99982 34184 ft 465 kts 15°
2026-04-26 13:00 42.04129 1.02458 34185 ft 466 kts 15°
2026-04-26 13:01 42.10347 1.04893 34184 ft 465 kts 13°
2026-04-26 13:01 42.16663 1.06245 34187 ft 462 kts
2026-04-26 13:02 42.23094 1.05977 34186 ft 461 kts 354°
2026-04-26 13:02 42.29442 1.05216 34189 ft 460 kts 353°
2026-04-26 13:03 42.35789 1.04404 34201 ft 459 kts 353°
2026-04-26 13:03 42.42176 1.03638 34210 ft 459 kts 354°
2026-04-26 13:04 42.48534 1.02916 34225 ft 458 kts 354°
2026-04-26 13:04 42.54897 1.02210 34239 ft 458 kts 354°
2026-04-26 13:05 42.61226 1.01515 34244 ft 457 kts 354°
2026-04-26 13:05 42.67549 1.00822 34246 ft 457 kts 354°
2026-04-26 13:06 42.73869 1.00128 34250 ft 456 kts 354°
2026-04-26 13:06 42.80203 0.99434 34245 ft 455 kts 354°
2026-04-26 13:07 42.86509 0.98742 34218 ft 455 kts 354°
2026-04-26 13:07 42.92840 0.98045 34197 ft 455 kts 354°
2026-04-26 13:08 42.99111 0.97354 34184 ft 454 kts 354°
2026-04-26 13:08 43.05405 0.96657 34185 ft 455 kts 354°
2026-04-26 13:09 43.11679 0.95961 34181 ft 453 kts 354°
2026-04-26 13:09 43.17989 0.95260 34178 ft 453 kts 354°
2026-04-26 13:10 43.24253 0.94563 34175 ft 452 kts 354°
2026-04-26 13:10 43.30526 0.93863 34173 ft 452 kts 354°
2026-04-26 13:11 43.36774 0.93164 34171 ft 451 kts 354°
2026-04-26 13:11 43.43048 0.92461 34168 ft 450 kts 354°
2026-04-26 13:12 43.49202 0.91770 34167 ft 450 kts 354°
2026-04-26 13:12 43.55408 0.91072 34166 ft 449 kts 354°
2026-04-26 13:13 43.61646 0.90369 34165 ft 448 kts 354°
2026-04-26 13:13 43.67851 0.89668 34164 ft 448 kts 354°
2026-04-26 13:14 43.74043 0.88967 34163 ft 447 kts 355°
2026-04-26 13:14 43.80236 0.88265 34163 ft 446 kts 355°
2026-04-26 13:15 43.86434 0.87355 34161 ft 447 kts 350°
2026-04-26 13:15 43.92374 0.85043 34163 ft 445 kts 339°
2026-04-26 13:16 43.97994 0.81654 34161 ft 444 kts 335°
2026-04-26 13:16 44.02866 0.78441 34162 ft 444 kts 335°
2026-04-26 13:17 44.11241 0.72888 34169 ft 444 kts 335°
2026-04-26 13:18 44.19622 0.67396 34174 ft 445 kts 335°
2026-04-26 13:19 44.28002 0.61927 34171 ft 445 kts 335°
2026-04-26 13:19 44.33593 0.58275 34168 ft 444 kts 335°
2026-04-26 13:20 44.39168 0.54629 34166 ft 444 kts 336°
2026-04-26 13:20 44.44717 0.50992 34166 ft 444 kts 335°
2026-04-26 13:21 44.50295 0.47306 34167 ft 444 kts 335°
2026-04-26 13:21 44.55876 0.43598 34167 ft 443 kts 335°
2026-04-26 13:22 44.61462 0.39879 34169 ft 444 kts 335°
2026-04-26 13:22 44.67025 0.36168 34171 ft 443 kts 335°
2026-04-26 13:23 44.72584 0.32453 34173 ft 443 kts 335°
2026-04-26 13:23 44.78131 0.28738 34174 ft 444 kts 335°
2026-04-26 13:24 44.83698 0.25002 34174 ft 443 kts 335°
2026-04-26 13:24 44.89273 0.21255 34174 ft 443 kts 335°
2026-04-26 13:25 44.94820 0.17518 34174 ft 443 kts 335°
2026-04-26 13:25 45.00368 0.13772 34173 ft 443 kts 335°
2026-04-26 13:26 45.05945 0.10000 34175 ft 443 kts 335°
2026-04-26 13:26 45.11475 0.06249 34176 ft 443 kts 335°
2026-04-26 13:27 45.17025 0.02476 34177 ft 443 kts 335°
2026-04-26 13:27 45.22542 -0.01282 34176 ft 443 kts 335°
2026-04-26 13:28 45.28067 -0.05053 34177 ft 443 kts 335°
2026-04-26 13:28 45.33635 -0.08863 34177 ft 443 kts 334°
2026-04-26 13:29 45.39175 -0.12661 34175 ft 443 kts 334°
2026-04-26 13:29 45.44730 -0.16478 34176 ft 443 kts 334°
2026-04-26 13:30 45.50274 -0.20294 34175 ft 443 kts 334°
2026-04-26 13:30 45.55792 -0.24099 34177 ft 443 kts 334°
2026-04-26 13:31 45.61326 -0.27925 34181 ft 443 kts 334°
2026-04-26 13:31 45.66937 -0.31556 34184 ft 443 kts 339°
2026-04-26 13:32 45.72778 -0.34437 34183 ft 443 kts 342°
2026-04-26 13:32 45.78673 -0.37040 34179 ft 443 kts 343°
2026-04-26 13:33 45.84536 -0.39613 34179 ft 444 kts 342°
2026-04-26 13:33 45.90424 -0.42233 34174 ft 444 kts 342°
2026-04-26 13:34 45.96334 -0.44893 34176 ft 443 kts 342°
2026-04-26 13:34 46.02180 -0.47545 34179 ft 444 kts 342°
2026-04-26 13:35 46.08073 -0.50230 34179 ft 444 kts 342°
2026-04-26 13:35 46.13926 -0.52907 34178 ft 444 kts 342°
2026-04-26 13:36 46.19783 -0.55593 34181 ft 444 kts 342°
2026-04-26 13:36 46.25675 -0.58300 34180 ft 444 kts 341°
2026-04-26 13:37 46.31572 -0.61014 34183 ft 444 kts 341°
2026-04-26 13:37 46.37394 -0.63700 34183 ft 445 kts 341°
2026-04-26 13:38 46.43362 -0.66128 34185 ft 445 kts 346°
2026-04-26 13:38 46.49450 -0.67546 34188 ft 447 kts 351°
2026-04-26 13:39 46.55523 -0.68554 34190 ft 447 kts 352°
2026-04-26 13:39 46.61694 -0.69517 34195 ft 447 kts 352°
2026-04-26 13:40 46.67857 -0.70499 34198 ft 447 kts 351°
2026-04-26 13:40 46.73956 -0.71499 34201 ft 447 kts 351°
2026-04-26 13:41 46.80096 -0.72525 34202 ft 447 kts 351°
2026-04-26 13:41 46.86237 -0.73563 34202 ft 447 kts 351°
2026-04-26 13:42 46.92419 -0.74613 34202 ft 448 kts 351°
2026-04-26 13:42 46.98583 -0.75664 34203 ft 448 kts 351°
2026-04-26 13:43 47.04781 -0.76722 34202 ft 448 kts 351°
2026-04-26 13:43 47.10937 -0.77777 34203 ft 449 kts 351°
2026-04-26 13:44 47.17122 -0.78839 34204 ft 450 kts 351°
2026-04-26 13:44 47.23330 -0.79908 34203 ft 449 kts 351°
2026-04-26 13:45 47.29530 -0.80977 34203 ft 449 kts 351°
2026-04-26 13:45 47.35746 -0.82053 34204 ft 452 kts 351°
2026-04-26 13:46 47.39662 -0.82730 34206 ft 452 kts 351°
2026-04-26 13:46 47.47296 -0.84053 34206 ft 451 kts 351°
2026-04-26 13:47 47.53499 -0.85132 34209 ft 453 kts 351°
2026-04-26 13:47 47.59812 -0.86059 34208 ft 455 kts 352°
2026-04-26 13:48 47.66056 -0.86791 34210 ft 455 kts 353°
2026-04-26 13:48 47.72384 -0.87513 34212 ft 455 kts 353°
2026-04-26 13:49 47.78706 -0.88254 34214 ft 457 kts 352°
2026-04-26 13:49 47.85033 -0.89015 34216 ft 456 kts 352°
2026-04-26 13:50 47.91377 -0.89790 34218 ft 458 kts 352°
2026-04-26 13:50 47.97699 -0.90569 34223 ft 459 kts 352°
2026-04-26 13:51 48.04064 -0.91356 34222 ft 458 kts 352°
2026-04-26 13:51 48.10370 -0.92136 34225 ft 459 kts 352°
2026-04-26 13:52 48.16725 -0.92927 34225 ft 459 kts 352°
2026-04-26 13:52 48.23096 -0.93724 34225 ft 460 kts 352°
2026-04-26 13:53 48.29425 -0.94516 34226 ft 460 kts 352°
2026-04-26 13:53 48.35813 -0.95318 34228 ft 460 kts 352°
2026-04-26 13:54 48.42145 -0.96112 34233 ft 460 kts 352°
2026-04-26 13:54 48.48544 -0.96918 34231 ft 460 kts 352°
2026-04-26 13:55 48.57033 -0.97991 34233 ft 461 kts 352°
2026-04-26 13:56 48.67681 -0.99342 34232 ft 461 kts 352°
2026-04-26 13:56 48.74039 -1.00152 34235 ft 461 kts 352°
2026-04-26 13:57 48.80412 -1.00964 34238 ft 461 kts 352°
2026-04-26 13:57 48.86784 -1.01778 34239 ft 462 kts 352°
2026-04-26 13:58 48.93192 -1.02597 34239 ft 462 kts 352°
2026-04-26 13:58 48.99459 -1.03399 34240 ft 462 kts 352°
2026-04-26 13:59 49.05817 -1.04220 34238 ft 462 kts 352°
2026-04-26 13:59 49.12191 -1.05045 34239 ft 462 kts 352°
2026-04-26 14:00 49.24864 -1.06688 34245 ft 462 kts 352°
2026-04-26 14:01 49.31284 -1.07523 34246 ft 463 kts 352°
2026-04-26 14:01 49.37671 -1.08356 34250 ft 463 kts 352°
2026-04-26 14:02 49.44088 -1.09195 34255 ft 463 kts 352°
2026-04-26 14:02 49.50515 -1.10017 34254 ft 463 kts 353°
2026-04-26 14:03 49.56974 -1.09467 34260 ft 471 kts 11°
2026-04-26 14:03 49.63023 -1.05455 34262 ft 479 kts 29°
2026-04-26 14:04 49.68502 -0.99587 34259 ft 480 kts 34°
2026-04-26 14:04 49.73827 -0.93449 34263 ft 478 kts 31°
2026-04-26 14:04 49.76746 -0.91038 34266 ft 472 kts 18°
2026-04-26 14:05 49.79901 -0.89751 34276 ft 469 kts
2026-04-26 14:05 49.86344 -0.88620 34269 ft 466 kts
2026-04-26 14:06 49.92802 -0.87917 34273 ft 466 kts
2026-04-26 14:06 49.99285 -0.87191 34275 ft 466 kts
2026-04-26 14:07 50.05739 -0.86370 34060 ft 469 kts
2026-04-26 14:07 50.08981 -0.85933 33782 ft 466 kts
2026-04-26 14:07 50.12072 -0.85505 33517 ft 466 kts
2026-04-26 14:07 50.15292 -0.85052 33220 ft 463 kts
2026-04-26 14:08 50.18484 -0.84598 32958 ft 466 kts
2026-04-26 14:08 50.21708 -0.84139 32683 ft 469 kts
2026-04-26 14:08 50.24961 -0.83675 32406 ft 470 kts
2026-04-26 14:08 50.28209 -0.83208 32131 ft 470 kts
2026-04-26 14:09 50.31454 -0.82741 31854 ft 470 kts
2026-04-26 14:09 50.34725 -0.82269 31575 ft 471 kts
2026-04-26 14:09 50.37969 -0.81800 30911 ft 470 kts
2026-04-26 14:09 50.41176 -0.81334 29975 ft 466 kts
2026-04-26 14:10 50.44408 -0.80863 29029 ft 466 kts
2026-04-26 14:10 50.47580 -0.80403 28024 ft 469 kts
2026-04-26 14:10 50.50779 -0.79939 26980 ft 465 kts
2026-04-26 14:10 50.53991 -0.79472 25921 ft 468 kts
2026-04-26 14:11 50.60409 -0.78541 24303 ft 467 kts
2026-04-26 14:11 50.63620 -0.78072 23518 ft 456 kts
2026-04-26 14:11 50.66694 -0.77619 22844 ft 445 kts
2026-04-26 14:12 50.69803 -0.77164 22126 ft 452 kts
2026-04-26 14:12 50.72893 -0.76713 21363 ft 446 kts
2026-04-26 14:12 50.75908 -0.76251 20655 ft 438 kts
2026-04-26 14:12 50.78737 -0.75660 19866 ft 442 kts
2026-04-26 14:13 50.84669 -0.73249 19042 ft 436 kts 17°
2026-04-26 14:13 50.87496 -0.71612 18802 ft 438 kts 20°
2026-04-26 14:13 50.90218 -0.69895 18562 ft 438 kts 21°
2026-04-26 14:14 50.92925 -0.68119 18316 ft 435 kts 21°
2026-04-26 14:14 50.95584 -0.66351 18068 ft 433 kts 21°
2026-04-26 14:14 50.98273 -0.64562 17824 ft 432 kts 21°
2026-04-26 14:14 51.00980 -0.62768 17572 ft 430 kts 21°
2026-04-26 14:15 51.03266 -0.61261 17360 ft 429 kts 21°
2026-04-26 14:15 51.06000 -0.59466 17099 ft 426 kts 21°